Precipitable_Water
0.63 0.67 0.69 0.70 0.70 0.67 0.66 0.66 0.64 0.65 0.65 0.65 0.64 0.63 0.63 0.62 0.60 0.57 0.56 0.56 0.57 0.59 0.59 0.57 0.55 0.53 0.51 0.54 0.55 0.55 0.56 0.51 0.49 0.44 0.41 0.42 0.46 0.48 0.46 0.46 0.46 0.49 0.49 0.47 0.44 0.42 0.39 0.40 0.39 0.42 0.43 0.42 0.42 0.41 0.44 0.42 0.42 0.40 0.35 0.32 0.27 0.27 0.27 0.29 0.28 0.29 0.31 0.31 0.33 0.40 0.47 0.47 0.45 0.47 0.51 0.52 0.48 0.53 0.53 0.63 0.63 0.69 0.68 0.81 0.79 1.01 0.94 0.94
0.63 0.66 0.68 0.70 0.70 0.67 0.65 0.66 0.65 0.65 0.65 0.66 0.63 0.64 0.63 0.62 0.60 0.58 0.56 0.56 0.56 0.58 0.59 0.58 0.55 0.53 0.53 0.52 0.55 0.55 0.51 0.50 0.41 0.40 0.39 0.47 0.46 0.46 0.48 0.48 0.48 0.48 0.47 0.43 0.40 0.39 0.36 0.35 0.37 0.39 0.39 0.38 0.42 0.38 0.41 0.39 0.40 0.36 0.32 0.32 0.27 0.28 0.29 0.33 0.32 0.32 0.31 0.30 0.32 0.36 0.45 0.47 0.47 0.47 0.50 0.44 0.43 0.49 0.48 0.54 0.54 0.58 0.68 0.72 0.85 0.98 0.91 0.91
0.63 0.65 0.68 0.70 0.70 0.67 0.64 0.65 0.65 0.64 0.66 0.66 0.64 0.64 0.64 0.62 0.60 0.57 0.55 0.55 0.57 0.58 0.59 0.57 0.55 0.55 0.52 0.52 0.54 0.52 0.49 0.40 0.40 0.34 0.38 0.46 0.45 0.45 0.47 0.49 0.48 0.49 0.45 0.41 0.43 0.41 0.38 0.37 0.38 0.38 0.38 0.36 0.39 0.36 0.37 0.37 0.36 0.36 0.31 0.29 0.29 0.31 0.32 0.33 0.33 0.32 0.33 0.32 0.32 0.33 0.41 0.45 0.50 0.48 0.52 0.43 0.46 0.46 0.44 0.45 0.48 0.52 0.55 0.63 0.81 0.89 0.87 0.91
0.62 0.65 0.67 0.71 0.70 0.67 0.64 0.64 0.65 0.65 0.66 0.68 0.65 0.64 0.63 0.61 0.59 0.57 0.56 0.56 0.57 0.58 0.58 0.58 0.56 0.55 0.55 0.53 0.55 0.54 0.45 0.35 0.25 0.32 0.45 0.49 0.47 0.47 0.48 0.50 0.51 0.49 0.48 0.45 0.44 0.43 0.42 0.40 0.39 0.38 0.36 0.35 0.37 0.37 0.34 0.36 0.32 0.34 0.31 0.28 0.29 0.31 0.31 0.33 0.34 0.33 0.33 0.33 0.32 0.33 0.41 0.42 0.50 0.49 0.48 0.44 0.45 0.41 0.45 0.50 0.49 0.48 0.54 0.65 0.77 0.82 0.82 0.86
0.62 0.64 0.67 0.71 0.71 0.67 0.64 0.63 0.65 0.65 0.65 0.68 0.64 0.64 0.62 0.61 0.59 0.57 0.56 0.57 0.57 0.59 0.59 0.58 0.58 0.56 0.54 0.54 0.51 0.51 0.39 0.19 0.27 0.39 0.58 0.52 0.54 0.47 0.47 0.49 0.51 0.50 0.48 0.46 0.45 0.44 0.40 0.39 0.38 0.37 0.35 0.33 0.36 0.35 0.34 0.35 0.35 0.32 0.30 0.31 0.32 0.32 0.30 0.33 0.34 0.34 0.33 0.33 0.32 0.33 0.38 0.41 0.51 0.51 0.46 0.47 0.46 0.43 0.45 0.47 0.54 0.57 0.59 0.65 0.70 0.77 0.81 0.82
0.61 0.64 0.67 0.71 0.71 0.68 0.65 0.63 0.64 0.65 0.64 0.66 0.64 0.62 0.61 0.60 0.59 0.58 0.57 0.57 0.57 0.59 0.59 0.58 0.58 0.57 0.56 0.53 0.51 0.47 0.27 0.12 0.39 0.45 0.54 0.60 0.53 0.50 0.47 0.48 0.49 0.50 0.49 0.44 0.41 0.40 0.38 0.38 0.37 0.33 0.33 0.32 0.32 0.31 0.35 0.34 0.35 0.28 0.31 0.32 0.32 0.32 0.31 0.33 0.33 0.33 0.33 0.33 0.31 0.34 0.40 0.45 0.46 0.45 0.48 0.49 0.51 0.57 0.54 0.54 0.54 0.65 0.67 0.75 0.79 0.78 0.76 0.79
0.59 0.63 0.68 0.72 0.71 0.69 0.65 0.62 0.62 0.63 0.64 0.64 0.63 0.61 0.61 0.60 0.60 0.59 0.58 0.57 0.57 0.57 0.58 0.57 0.58 0.58 0.55 0.56 0.54 0.44 0.32 0.42 0.47 0.54 0.53 0.52 0.51 0.48 0.46 0.48 0.49 0.47 0.44 0.42 0.40 0.38 0.37 0.36 0.34 0.32 0.32 0.32 0.33 0.32 0.34 0.33 0.34 0.31 0.28 0.31 0.31 0.32 0.31 0.33 0.33 0.34 0.33 0.33 0.34 0.38 0.43 0.41 0.43 0.40 0.49 0.48 0.56 0.61 0.59 0.52 0.61 0.70 0.71 0.76 0.76 0.77 0.78 0.80
0.57 0.62 0.69 0.74 0.72 0.69 0.66 0.63 0.61 0.62 0.62 0.64 0.63 0.61 0.61 0.61 0.61 0.60 0.59 0.58 0.58 0.57 0.57 0.57 0.58 0.57 0.58 0.52 0.40 0.32 0.34 0.37 0.49 0.60 0.58 0.60 0.52 0.45 0.44 0.45 0.44 0.42 0.40 0.39 0.39 0.36 0.36 0.33 0.32 0.34 0.32 0.31 0.35 0.32 0.35 0.31 0.32 0.30 0.29 0.31 0.31 0.32 0.32 0.33 0.33 0.34 0.35 0.35 0.39 0.42 0.39 0.39 0.44 0.46 0.55 0.48 0.54 0.63 0.66 0.64 0.68 0.69 0.70 0.74 0.78 0.78 0.81 0.82
0.56 0.61 0.69 0.76 0.75 0.70 0.67 0.64 0.61 0.60 0.61 0.60 0.63 0.61 0.60 0.62 0.61 0.61 0.61 0.59 0.58 0.57 0.56 0.57 0.57 0.57 0.62 0.53 0.39 0.33 0.34 0.50 0.58 0.66 0.68 0.61 0.51 0.41 0.40 0.36 0.40 0.35 0.36 0.39 0.38 0.37 0.34 0.31 0.32 0.34 0.30 0.32 0.34 0.31 0.33 0.30 0.28 0.31 0.31 0.31 0.31 0.30 0.31 0.32 0.33 0.36 0.36 0.38 0.41 0.39 0.39 0.43 0.46 0.53 0.47 0.50 0.55 0.64 0.68 0.67 0.70 0.67 0.66 0.71 0.76 0.78 0.83 0.84
0.54 0.59 0.67 0.75 0.76 0.72 0.67 0.65 0.62 0.60 0.60 0.60 0.60 0.61 0.61 0.62 0.62 0.63 0.62 0.60 0.59 0.58 0.58 0.57 0.56 0.56 0.53 0.45 0.40 0.31 0.47 0.64 0.67 0.73 0.70 0.65 0.52 0.46 0.39 0.36 0.34 0.32 0.32 0.34 0.36 0.36 0.31 0.31 0.31 0.34 0.34 0.33 0.35 0.31 0.32 0.30 0.29 0.33 0.32 0.31 0.30 0.30 0.30 0.32 0.32 0.35 0.37 0.39 0.40 0.39 0.40 0.45 0.51 0.47 0.42 0.49 0.55 0.68 0.66 0.67 0.70 0.66 0.64 0.71 0.79 0.79 0.83 0.86
0.53 0.57 0.66 0.75 0.77 0.75 0.70 0.66 0.63 0.61 0.59 0.58 0.60 0.60 0.61 0.62 0.63 0.64 0.63 0.61 0.59 0.60 0.60 0.58 0.58 0.55 0.45 0.46 0.36 0.33 0.62 0.65 0.72 0.75 0.73 0.63 0.50 0.43 0.41 0.39 0.35 0.32 0.31 0.31 0.31 0.32 0.32 0.31 0.33 0.35 0.33 0.32 0.33 0.31 0.30 0.30 0.33 0.31 0.31 0.31 0.30 0.30 0.30 0.33 0.34 0.36 0.37 0.38 0.42 0.42 0.42 0.47 0.51 0.46 0.43 0.63 0.63 0.66 0.63 0.66 0.66 0.66 0.65 0.70 0.78 0.77 0.81 0.85
0.50 0.54 0.63 0.74 0.76 0.77 0.74 0.68 0.65 0.63 0.61 0.59 0.59 0.60 0.61 0.63 0.63 0.64 0.63 0.62 0.60 0.61 0.62 0.60 0.57 0.58 0.52 0.43 0.37 0.41 0.63 0.69 0.76 0.76 0.75 0.65 0.54 0.48 0.45 0.41 0.40 0.36 0.33 0.30 0.31 0.34 0.34 0.32 0.33 0.32 0.29 0.35 0.28 0.30 0.29 0.32 0.31 0.31 0.31 0.27 0.28 0.28 0.29 0.32 0.32 0.36 0.37 0.40 0.42 0.45 0.42 0.39 0.42 0.39 0.44 0.54 0.62 0.63 0.66 0.66 0.66 0.66 0.69 0.70 0.77 0.79 0.81 0.81
0.50 0.51 0.60 0.71 0.76 0.77 0.76 0.71 0.68 0.65 0.63 0.62 0.61 0.60 0.63 0.65 0.65 0.65 0.64 0.62 0.63 0.62 0.62 0.62 0.60 0.59 0.49 0.31 0.41 0.55 0.65 0.71 0.73 0.72 0.75 0.70 0.62 0.57 0.51 0.48 0.44 0.41 0.37 0.33 0.32 0.34 0.33 0.35 0.34 0.31 0.33 0.30 0.30 0.25 0.31 0.32 0.31 0.30 0.29 0.27 0.25 0.27 0.28 0.34 0.35 0.38 0.38 0.41 0.44 0.43 0.34 0.36 0.39 0.41 0.46 0.55 0.57 0.59 0.62 0.63 0.64 0.67 0.69 0.71 0.75 0.76 0.81 0.84
0.52 0.52 0.56 0.67 0.73 0.77 0.76 0.75 0.71 0.70 0.68 0.66 0.66 0.66 0.67 0.68 0.68 0.68 0.66 0.64 0.65 0.64 0.63 0.63 0.64 0.56 0.46 0.33 0.47 0.56 0.66 0.70 0.72 0.70 0.69 0.67 0.59 0.56 0.54 0.51 0.48 0.44 0.42 0.36 0.32 0.34 0.32 0.36 0.35 0.32 0.34 0.29 0.27 0.32 0.28 0.29 0.30 0.26 0.29 0.27 0.25 0.27 0.30 0.36 0.35 0.37 0.37 0.41 0.44 0.44 0.35 0.38 0.41 0.44 0.50 0.56 0.56 0.55 0.54 0.60 0.64 0.65 0.68 0.70 0.73 0.72 0.76 0.80
0.55 0.54 0.57 0.63 0.71 0.75 0.76 0.75 0.75 0.73 0.72 0.71 0.71 0.71 0.71 0.70 0.70 0.69 0.69 0.66 0.67 0.67 0.64 0.66 0.63 0.52 0.35 0.35 0.51 0.66 0.70 0.72 0.64 0.64 0.69 0.63 0.58 0.55 0.51 0.50 0.47 0.47 0.44 0.36 0.28 0.28 0.31 0.33 0.32 0.28 0.26 0.30 0.29 0.26 0.24 0.25 0.27 0.28 0.23 0.24 0.28 0.27 0.34 0.35 0.36 0.36 0.35 0.42 0.46 0.43 0.35 0.38 0.42 0.46 0.52 0.60 0.57 0.56 0.52 0.58 0.66 0.65 0.65 0.68 0.71 0.70 0.72 0.77
0.56 0.56 0.58 0.63 0.67 0.73 0.76 0.76 0.76 0.77 0.75 0.74 0.75 0.74 0.73 0.72 0.71 0.71 0.70 0.69 0.68 0.67 0.68 0.57 0.54 0.51 0.40 0.31 0.47 0.73 0.65 0.56 0.58 0.68 0.69 0.67 0.62 0.53 0.53 0.47 0.47 0.45 0.39 0.29 0.28 0.27 0.28 0.28 0.24 0.26 0.27 0.27 0.25 0.24 0.24 0.24 0.25 0.26 0.23 0.25 0.26 0.28 0.32 0.32 0.36 0.39 0.39 0.39 0.43 0.43 0.37 0.40 0.41 0.47 0.47 0.54 0.55 0.55 0.51 0.54 0.66 0.67 0.65 0.67 0.71 0.73 0.72 0.77
0.57 0.58 0.61 0.64 0.67 0.71 0.74 0.76 0.76 0.77 0.77 0.78 0.79 0.78 0.77 0.74 0.72 0.71 0.69 0.68 0.67 0.70 0.66 0.54 0.54 0.53 0.33 0.49 0.58 0.47 0.51 0.57 0.66 0.65 0.68 0.68 0.63 0.57 0.48 0.41 0.38 0.35 0.31 0.28 0.27 0.26 0.26 0.25 0.28 0.26 0.27 0.25 0.27 0.25 0.22 0.21 0.23 0.24 0.26 0.25 0.29 0.27 0.30 0.34 0.37 0.41 0.41 0.40 0.40 0.42 0.39 0.39 0.41 0.45 0.48 0.47 0.48 0.50 0.50 0.51 0.57 0.69 0.68 0.67 0.71 0.73 0.73 0.75
0.53 0.56 0.63 0.68 0.68 0.70 0.73 0.76 0.77 0.79 0.79 0.78 0.78 0.75 0.73 0.75 0.73 0.67 0.66 0.69 0.70 0.67 0.66 0.69 0.60 0.49 0.35 0.48 0.34 0.40 0.57 0.57 0.59 0.64 0.69 0.70 0.64 0.53 0.40 0.34 0.33 0.30 0.29 0.26 0.26 0.23 0.24 0.24 0.24 0.22 0.24 0.23 0.24 0.23 0.20 0.21 0.23 0.26 0.26 0.25 0.28 0.30 0.33 0.34 0.32 0.39 0.39 0.38 0.36 0.39 0.38 0.38 0.40 0.42 0.44 0.48 0.47 0.47 0.48 0.50 0.52 0.59 0.70 0.70 0.70 0.72 0.72 0.74
0.49 0.50 0.60 0.70 0.71 0.71 0.73 0.74 0.77 0.82 0.80 0.80 0.78 0.79 0.77 0.76 0.75 0.73 0.60 0.60 0.53 0.43 0.37 0.39 0.40 0.28 0.29 0.35 0.47 0.49 0.52 0.59 0.63 0.61 0.60 0.62 0.58 0.47 0.41 0.39 0.34 0.30 0.25 0.23 0.23 0.25 0.23 0.25 0.23 0.22 0.21 0.22 0.22 0.23 0.22 0.23 0.24 0.26 0.25 0.25 0.28 0.29 0.33 0.33 0.36 0.40 0.40 0.36 0.35 0.35 0.35 0.37 0.38 0.39 0.40 0.44 0.47 0.46 0.47 0.49 0.50 0.55 0.67 0.74 0.71 0.73 0.76 0.77
0.50 0.50 0.51 0.64 0.74 0.74 0.76 0.75 0.79 0.81 0.83 0.78 0.75 0.73 0.69 0.58 0.55 0.50 0.57 0.54 0.45 0.42 0.41 0.45 0.41 0.42 0.42 0.43 0.46 0.55 0.61 0.61 0.53 0.57 0.62 0.62 0.53 0.44 0.41 0.39 0.35 0.33 0.28 0.22 0.26 0.24 0.25 0.20 0.19 0.19 0.22 0.23 0.24 0.23 0.23 0.24 0.25 0.25 0.27 0.28 0.29 0.30 0.34 0.37 0.37 0.40 0.41 0.37 0.35 0.35 0.35 0.36 0.37 0.37 0.37 0.40 0.44 0.48 0.51 0.50 0.54 0.58 0.65 0.72 0.78 0.81 0.87 0.91
0.50 0.51 0.50 0.55 0.67 0.76 0.77 0.81 0.82 0.81 0.76 0.77 0.76 0.68 0.50 0.48 0.43 0.44 0.51 0.50 0.51 0.49 0.44 0.43 0.44 0.40 0.39 0.48 0.52 0.54 0.47 0.50 0.55 0.58 0.59 0.67 0.53 0.45 0.39 0.36 0.33 0.28 0.28 0.26 0.26 0.28 0.24 0.19 0.20 0.22 0.23 0.24 0.23 0.23 0.24 0.25 0.26 0.26 0.27 0.29 0.30 0.31 0.34 0.37 0.36 0.39 0.39 0.37 0.34 0.36 0.35 0.36 0.38 0.37 0.41 0.42 0.45 0.49 0.52 0.53 0.57 0.61 0.66 0.73 0.82 0.83 0.87 0.98
0.47 0.51 0.52 0.53 0.59 0.64 0.72 0.76 0.82 0.82 0.78 0.74 0.69 0.60 0.54 0.54 0.56 0.59 0.52 0.38 0.49 0.49 0.47 0.47 0.49 0.43 0.49 0.52 0.57 0.60 0.54 0.49 0.51 0.57 0.66 0.64 0.51 0.39 0.39 0.34 0.31 0.27 0.30 0.28 0.27 0.23 0.20 0.19 0.22 0.24 0.26 0.24 0.23 0.25 0.27 0.27 0.26 0.27 0.28 0.29 0.30 0.32 0.36 0.38 0.37 0.37 0.37 0.36 0.34 0.35 0.34 0.35 0.35 0.42 0.40 0.39 0.41 0.46 0.50 0.51 0.53 0.54 0.54 0.60 0.68 0.75 0.79 0.84
0.42 0.50 0.55 0.55 0.58 0.61 0.65 0.71 0.79 0.84 0.75 0.63 0.54 0.50 0.49 0.57 0.62 0.63 0.52 0.41 0.35 0.43 0.43 0.44 0.41 0.42 0.45 0.55 0.60 0.61 0.48 0.45 0.47 0.54 0.60 0.58 0.50 0.42 0.40 0.32 0.31 0.29 0.29 0.26 0.22 0.22 0.20 0.21 0.23 0.27 0.24 0.23 0.26 0.28 0.28 0.28 0.28 0.27 0.28 0.29 0.29 0.35 0.34 0.32 0.35 0.35 0.36 0.35 0.32 0.32 0.31 0.35 0.35 0.42 0.41 0.45 0.45 0.48 0.51 0.53 0.54 0.57 0.57 0.61 0.65 0.69 0.71 0.74
0.37 0.45 0.54 0.59 0.62 0.62 0.63 0.65 0.74 0.71 0.66 0.64 0.58 0.55 0.56 0.62 0.60 0.53 0.41 0.32 0.31 0.39 0.40 0.44 0.45 0.45 0.44 0.46 0.59 0.57 0.49 0.50 0.49 0.50 0.63 0.55 0.44 0.45 0.38 0.33 0.31 0.29 0.26 0.25 0.23 0.22 0.22 0.26 0.27 0.25 0.26 0.26 0.26 0.28 0.28 0.27 0.26 0.29 0.30 0.30 0.31 0.33 0.34 0.36 0.36 0.37 0.35 0.35 0.34 0.32 0.31 0.33 0.33 0.36 0.39 0.47 0.52 0.52 0.54 0.56 0.57 0.59 0.60 0.63 0.64 0.66 0.70 0.70
0.36 0.40 0.49 0.61 0.62 0.67 0.63 0.67 0.58 0.55 0.63 0.61 0.56 0.63 0.62 0.63 0.59 0.53 0.35 0.33 0.34 0.32 0.49 0.45 0.47 0.47 0.52 0.63 0.65 0.51 0.52 0.55 0.52 0.55 0.58 0.53 0.47 0.40 0.35 0.37 0.33 0.27 0.26 0.27 0.24 0.23 0.22 0.26 0.28 0.27 0.29 0.30 0.29 0.28 0.29 0.29 0.27 0.29 0.31 0.32 0.32 0.34 0.33 0.34 0.35 0.33 0.31 0.30 0.31 0.29 0.24 0.27 0.35 0.36 0.36 0.47 0.49 0.47 0.52 0.54 0.56 0.59 0.62 0.63 0.60 0.59 0.63 0.67
0.34 0.36 0.42 0.54 0.62 0.65 0.68 0.52 0.53 0.57 0.53 0.47 0.52 0.59 0.59 0.61 0.61 0.53 0.37 0.27 0.22 0.32 0.34 0.30 0.47 0.39 0.57 0.46 0.56 0.55 0.57 0.45 0.54 0.55 0.55 0.54 0.54 0.43 0.37 0.32 0.32 0.27 0.28 0.27 0.25 0.24 0.24 0.28 0.27 0.28 0.29 0.30 0.30 0.29 0.31 0.30 0.28 0.28 0.31 0.34 0.33 0.33 0.33 0.33 0.33 0.31 0.26 0.27 0.31 0.31 0.23 0.23 0.34 0.34 0.35 0.41 0.42 0.42 0.46 0.48 0.53 0.58 0.61 0.63 0.65 0.66 0.66 0.65
0.31 0.33 0.37 0.43 0.55 0.63 0.50 0.43 0.55 0.53 0.40 0.42 0.47 0.51 0.55 0.60 0.65 0.52 0.29 0.26 0.18 0.33 0.26 0.42 0.37 0.50 0.51 0.50 0.51 0.57 0.35 0.40 0.55 0.55 0.52 0.56 0.46 0.46 0.34 0.31 0.31 0.31 0.32 0.31 0.26 0.23 0.27 0.26 0.28 0.29 0.29 0.29 0.30 0.29 0.31 0.31 0.28 0.28 0.35 0.35 0.34 0.32 0.31 0.31 0.31 0.29 0.27 0.30 0.30 0.28 0.25 0.22 0.26 0.36 0.40 0.42 0.37 0.37 0.38 0.41 0.46 0.52 0.57 0.61 0.64 0.67 0.69 0.71
0.30 0.31 0.33 0.37 0.43 0.54 0.46 0.50 0.51 0.43 0.40 0.46 0.48 0.46 0.49 0.54 0.55 0.55 0.32 0.13 0.11 0.33 0.28 0.34 0.39 0.58 0.49 0.52 0.56 0.47 0.45 0.52 0.40 0.46 0.54 0.56 0.50 0.44 0.37 0.33 0.29 0.28 0.29 0.28 0.21 0.32 0.27 0.26 0.28 0.29 0.29 0.30 0.30 0.32 0.33 0.33 0.30 0.31 0.35 0.34 0.33 0.31 0.31 0.31 0.29 0.27 0.26 0.25 0.23 0.27 0.27 0.21 0.21 0.36 0.40 0.38 0.34 0.33 0.35 0.37 0.40 0.46 0.51 0.55 0.59 0.64 0.71 0.75
0.27 0.28 0.29 0.31 0.38 0.43 0.54 0.49 0.46 0.39 0.38 0.41 0.41 0.42 0.44 0.53 0.47 0.38 0.34 0.14 0.33 0.29 0.44 0.33 0.49 0.46 0.44 0.52 0.50 0.51 0.45 0.46 0.36 0.48 0.50 0.54 0.51 0.44 0.35 0.37 0.33 0.31 0.30 0.28 0.25 0.31 0.32 0.32 0.32 0.32 0.31 0.30 0.33 0.35 0.34 0.34 0.30 0.34 0.35 0.34 0.33 0.32 0.31 0.30 0.28 0.26 0.27 0.24 0.21 0.25 0.27 0.20 0.23 0.35 0.38 0.36 0.32 0.32 0.34 0.36 0.38 0.42 0.47 0.49 0.53 0.60 0.67 0.73
0.26 0.26 0.27 0.28 0.34 0.39 0.40 0.46 0.37 0.39 0.39 0.39 0.38 0.39 0.47 0.51 0.43 0.21 0.15 0.11 0.30 0.24 0.32 0.37 0.33 0.33 0.40 0.40 0.44 0.48 0.43 0.43 0.41 0.46 0.49 0.46 0.48 0.47 0.43 0.45 0.36 0.32 0.29 0.30 0.30 0.31 0.34 0.37 0.38 0.34 0.32 0.34 0.35 0.35 0.35 0.34 0.34 0.36 0.34 0.32 0.31 0.30 0.30 0.30 0.29 0.27 0.26 0.22 0.22 0.26 0.28 0.23 0.19 0.33 0.36 0.32 0.30 0.34 0.35 0.35 0.38 0.40 0.44 0.46 0.48 0.52 0.57 0.63
0.24 0.25 0.26 0.27 0.21 0.38 0.38 0.25 0.31 0.38 0.38 0.38 0.40 0.42 0.41 0.43 0.29 0.17 0.11 0.16 0.28 0.30 0.34 0.34 0.30 0.34 0.33 0.35 0.36 0.46 0.45 0.43 0.40 0.42 0.41 0.45 0.44 0.44 0.42 0.39 0.41 0.34 0.32 0.30 0.29 0.31 0.33 0.35 0.35 0.37 0.39 0.38 0.36 0.33 0.35 0.36 0.36 0.34 0.31 0.30 0.29 0.28 0.30 0.28 0.27 0.28 0.22 0.20 0.25 0.28 0.28 0.26 0.18 0.32 0.33 0.34 0.35 0.36 0.35 0.34 0.36 0.38 0.42 0.45 0.47 0.49 0.51 0.56
0.22 0.23 0.24 0.23 0.22 0.31 0.23 0.25 0.35 0.37 0.35 0.36 0.45 0.36 0.32 0.20 0.21 0.15 0.11 0.26 0.17 0.28 0.26 0.29 0.32 0.32 0.32 0.36 0.38 0.41 0.39 0.42 0.41 0.40 0.38 0.38 0.39 0.38 0.38 0.34 0.35 0.28 0.26 0.28 0.28 0.31 0.31 0.33 0.36 0.37 0.40 0.36 0.34 0.31 0.32 0.33 0.34 0.32 0.31 0.29 0.24 0.25 0.28 0.23 0.27 0.23 0.21 0.19 0.26 0.30 0.29 0.24 0.24 0.33 0.34 0.34 0.35 0.37 0.38 0.38 0.39 0.40 0.44 0.46 0.46 0.47 0.51 0.54
0.22 0.22 0.22 0.22 0.24 0.21 0.25 0.34 0.35 0.36 0.35 0.40 0.41 0.41 0.23 0.20 0.12 0.13 0.16 0.19 0.21 0.31 0.28 0.31 0.31 0.32 0.33 0.31 0.31 0.36 0.41 0.37 0.41 0.40 0.40 0.40 0.38 0.39 0.42 0.40 0.40 0.33 0.28 0.32 0.31 0.29 0.30 0.35 0.35 0.35 0.36 0.38 0.35 0.28 0.29 0.28 0.30 0.29 0.28 0.27 0.24 0.21 0.23 0.21 0.22 0.24 0.24 0.26 0.30 0.28 0.27 0.23 0.34 0.34 0.36 0.34 0.36 0.38 0.41 0.42 0.44 0.44 0.44 0.44 0.44 0.47 0.49 0.52
0.22 0.22 0.19 0.24 0.24 0.26 0.32 0.32 0.33 0.34 0.31 0.35 0.38 0.30 0.26 0.17 0.13 0.26 0.18 0.20 0.24 0.28 0.29 0.28 0.31 0.33 0.33 0.30 0.31 0.33 0.33 0.39 0.39 0.37 0.39 0.38 0.37 0.36 0.38 0.40 0.40 0.37 0.33 0.36 0.29 0.30 0.26 0.24 0.29 0.32 0.30 0.37 0.35 0.33 0.33 0.31 0.32 0.31 0.31 0.27 0.26 0.26 0.23 0.21 0.21 0.18 0.20 0.21 0.27 0.30 0.23 0.24 0.24 0.31 0.36 0.37 0.39 0.41 0.45 0.46 0.48 0.48 0.47 0.46 0.46 0.47 0.47 0.48
0.23 0.22 0.23 0.25 0.26 0.27 0.30 0.29 0.30 0.33 0.32 0.30 0.32 0.25 0.14 0.13 0.13 0.16 0.14 0.19 0.21 0.25 0.25 0.31 0.29 0.29 0.30 0.33 0.36 0.36 0.38 0.34 0.39 0.38 0.38 0.36 0.36 0.37 0.37 0.38 0.40 0.39 0.38 0.30 0.33 0.32 0.28 0.29 0.36 0.37 0.38 0.38 0.35 0.37 0.37 0.33 0.30 0.31 0.31 0.30 0.25 0.24 0.30 0.24 0.31 0.27 0.26 0.26 0.26 0.26 0.25 0.33 0.32 0.39 0.40 0.40 0.41 0.42 0.45 0.47 0.48 0.47 0.48 0.47 0.46 0.46 0.47 0.48
0.23 0.23 0.24 0.22 0.24 0.29 0.29 0.28 0.29 0.30 0.30 0.26 0.23 0.21 0.16 0.14 0.13 0.17 0.20 0.25 0.21 0.19 0.23 0.27 0.30 0.27 0.28 0.30 0.35 0.34 0.41 0.36 0.38 0.38 0.37 0.37 0.39 0.38 0.41 0.41 0.40 0.40 0.37 0.30 0.35 0.28 0.29 0.26 0.36 0.37 0.39 0.37 0.37 0.39 0.37 0.35 0.25 0.32 0.29 0.25 0.28 0.33 0.29 0.28 0.26 0.28 0.25 0.23 0.22 0.29 0.29 0.32 0.40 0.39 0.39 0.41 0.40 0.41 0.44 0.45 0.46 0.47 0.47 0.47 0.47 0.48 0.48 0.49
0.21 0.22 0.21 0.31 0.29 0.30 0.27 0.26 0.28 0.27 0.28 0.23 0.19 0.17 0.20 0.19 0.23 0.23 0.22 0.18 0.20 0.20 0.21 0.18 0.22 0.24 0.26 0.27 0.31 0.33 0.36 0.38 0.38 0.37 0.33 0.39 0.36 0.38 0.38 0.40 0.44 0.42 0.41 0.39 0.36 0.37 0.30 0.30 0.37 0.34 0.33 0.38 0.41 0.40 0.39 0.38 0.36 0.33 0.26 0.30 0.35 0.36 0.34 0.28 0.22 0.25 0.23 0.20 0.25 0.31 0.27 0.31 0.30 0.30 0.40 0.41 0.40 0.41 0.43 0.43 0.45 0.46 0.46 0.46 0.48 0.49 0.49 0.49
0.23 0.21 0.17 0.15 0.28 0.29 0.30 0.29 0.28 0.27 0.25 0.20 0.15 0.17 0.26 0.20 0.25 0.19 0.20 0.19 0.19 0.21 0.21 0.18 0.30 0.24 0.26 0.27 0.30 0.33 0.37 0.33 0.34 0.36 0.33 0.36 0.33 0.42 0.39 0.38 0.42 0.41 0.43 0.43 0.36 0.38 0.34 0.28 0.33 0.37 0.37 0.39 0.42 0.39 0.37 0.38 0.39 0.33 0.32 0.39 0.29 0.26 0.25 0.30 0.26 0.21 0.20 0.20 0.22 0.26 0.29 0.29 0.31 0.33 0.38 0.39 0.40 0.41 0.42 0.44 0.44 0.44 0.45 0.45 0.47 0.47 0.48 0.48
0.28 0.21 0.12 0.26 0.23 0.23 0.24 0.28 0.28 0.24 0.19 0.17 0.14 0.14 0.19 0.23 0.22 0.20 0.18 0.18 0.19 0.20 0.18 0.20 0.23 0.25 0.28 0.25 0.29 0.34 0.37 0.31 0.36 0.35 0.33 0.36 0.32 0.40 0.40 0.42 0.39 0.42 0.43 0.42 0.36 0.39 0.37 0.28 0.31 0.37 0.36 0.39 0.39 0.36 0.29 0.34 0.38 0.39 0.38 0.33 0.35 0.31 0.29 0.30 0.31 0.30 0.28 0.25 0.23 0.24 0.28 0.26 0.33 0.41 0.39 0.39 0.42 0.42 0.42 0.43 0.44 0.46 0.46 0.47 0.48 0.48 0.47 0.47
0.24 0.16 0.15 0.27 0.29 0.28 0.30 0.28 0.21 0.19 0.16 0.13 0.14 0.14 0.20 0.20 0.20 0.19 0.21 0.20 0.17 0.17 0.19 0.21 0.22 0.25 0.23 0.28 0.29 0.28 0.33 0.36 0.37 0.38 0.36 0.38 0.36 0.43 0.40 0.45 0.41 0.42 0.43 0.42 0.40 0.42 0.36 0.37 0.26 0.35 0.40 0.37 0.31 0.36 0.33 0.37 0.35 0.34 0.32 0.32 0.31 0.32 0.36 0.33 0.36 0.29 0.26 0.24 0.24 0.23 0.22 0.28 0.38 0.43 0.42 0.42 0.42 0.42 0.44 0.43 0.44 0.46 0.47 0.49 0.50 0.49 0.49 0.49
0.27 0.17 0.19 0.27 0.29 0.31 0.29 0.26 0.18 0.14 0.13 0.15 0.17 0.18 0.18 0.16 0.18 0.18 0.20 0.22 0.20 0.21 0.20 0.21 0.22 0.21 0.25 0.24 0.24 0.30 0.29 0.33 0.36 0.36 0.36 0.37 0.37 0.33 0.42 0.43 0.44 0.40 0.42 0.41 0.38 0.40 0.35 0.33 0.28 0.34 0.33 0.31 0.34 0.41 0.41 0.40 0.39 0.38 0.36 0.33 0.34 0.31 0.28 0.24 0.23 0.33 0.29 0.25 0.22 0.22 0.21 0.27 0.37 0.45 0.44 0.43 0.43 0.43 0.43 0.45 0.44 0.46 0.47 0.49 0.50 0.50 0.52 0.50
0.21 0.15 0.19 0.26 0.28 0.29 0.25 0.18 0.16 0.23 0.19 0.15 0.17 0.15 0.15 0.18 0.15 0.16 0.18 0.21 0.20 0.19 0.21 0.22 0.25 0.26 0.26 0.25 0.28 0.27 0.28 0.30 0.32 0.33 0.35 0.34 0.39 0.40 0.41 0.47 0.45 0.45 0.40 0.36 0.38 0.42 0.45 0.39 0.34 0.31 0.33 0.34 0.36 0.41 0.43 0.41 0.40 0.38 0.36 0.35 0.35 0.34 0.32 0.27 0.21 0.24 0.31 0.29 0.29 0.26 0.24 0.30 0.42 0.46 0.44 0.42 0.43 0.44 0.45 0.46 0.46 0.47 0.48 0.50 0.50 0.52 0.53 0.52
0.22 0.18 0.26 0.29 0.28 0.23 0.21 0.15 0.21 0.19 0.13 0.15 0.22 0.19 0.18 0.16 0.16 0.17 0.17 0.18 0.17 0.20 0.20 0.19 0.21 0.21 0.23 0.24 0.25 0.26 0.31 0.28 0.30 0.31 0.34 0.36 0.37 0.41 0.44 0.46 0.46 0.44 0.44 0.40 0.40 0.43 0.46 0.36 0.33 0.31 0.34 0.37 0.39 0.41 0.42 0.41 0.39 0.35 0.35 0.35 0.33 0.31 0.31 0.30 0.30 0.34 0.29 0.30 0.27 0.25 0.23 0.29 0.42 0.45 0.44 0.44 0.45 0.46 0.47 0.48 0.48 0.47 0.48 0.49 0.48 0.48 0.50 0.48
0.20 0.19 0.20 0.34 0.31 0.25 0.19 0.12 0.13 0.15 0.14 0.19 0.15 0.17 0.18 0.18 0.17 0.16 0.17 0.17 0.17 0.18 0.18 0.20 0.21 0.23 0.23 0.24 0.25 0.24 0.30 0.23 0.31 0.32 0.32 0.36 0.35 0.44 0.44 0.45 0.46 0.42 0.42 0.39 0.37 0.43 0.33 0.37 0.33 0.29 0.29 0.30 0.32 0.36 0.36 0.38 0.37 0.34 0.31 0.33 0.33 0.33 0.33 0.33 0.33 0.36 0.26 0.27 0.29 0.25 0.20 0.28 0.44 0.49 0.48 0.46 0.47 0.48 0.47 0.47 0.49 0.46 0.46 0.47 0.46 0.46 0.46 0.46
0.23 0.26 0.22 0.22 0.27 0.23 0.15 0.16 0.14 0.13 0.14 0.16 0.14 0.14 0.14 0.17 0.20 0.21 0.19 0.18 0.20 0.21 0.21 0.21 0.22 0.23 0.22 0.24 0.26 0.27 0.28 0.30 0.25 0.32 0.33 0.34 0.34 0.42 0.43 0.45 0.46 0.44 0.48 0.47 0.45 0.43 0.35 0.34 0.32 0.26 0.23 0.21 0.21 0.22 0.25 0.29 0.31 0.35 0.34 0.32 0.32 0.30 0.31 0.31 0.28 0.31 0.25 0.29 0.30 0.26 0.25 0.37 0.43 0.47 0.46 0.46 0.48 0.47 0.47 0.48 0.47 0.46 0.43 0.42 0.41 0.40 0.39 0.38
0.26 0.15 0.20 0.22 0.22 0.22 0.18 0.20 0.17 0.17 0.18 0.18 0.13 0.15 0.16 0.15 0.18 0.20 0.21 0.22 0.23 0.22 0.24 0.23 0.22 0.23 0.22 0.23 0.22 0.23 0.23 0.28 0.28 0.26 0.29 0.30 0.32 0.36 0.40 0.42 0.43 0.42 0.43 0.41 0.40 0.41 0.36 0.36 0.35 0.32 0.29 0.26 0.27 0.28 0.35 0.36 0.34 0.30 0.31 0.31 0.30 0.31 0.31 0.31 0.30 0.27 0.25 0.28 0.28 0.30 0.30 0.37 0.37 0.39 0.40 0.39 0.39 0.40 0.40 0.39 0.38 0.37 0.38 0.38 0.37 0.35 0.34 0.34
0.28 0.19 0.21 0.17 0.24 0.19 0.19 0.19 0.17 0.15 0.13 0.19 0.12 0.16 0.14 0.16 0.18 0.18 0.22 0.20 0.22 0.23 0.22 0.24 0.21 0.20 0.20 0.21 0.22 0.23 0.24 0.23 0.28 0.27 0.27 0.28 0.31 0.33 0.37 0.37 0.38 0.39 0.38 0.36 0.35 0.34 0.30 0.27 0.30 0.30 0.30 0.27 0.27 0.30 0.29 0.29 0.27 0.28 0.28 0.28 0.29 0.28 0.29 0.28 0.26 0.24 0.28 0.24 0.20 0.24 0.26 0.23 0.28 0.34 0.34 0.32 0.30 0.34 0.35 0.36 0.36 0.35 0.34 0.33 0.32 0.32 0.32 0.33
0.19 0.27 0.27 0.31 0.20 0.19 0.17 0.19 0.18 0.18 0.19 0.18 0.18 0.19 0.14 0.15 0.16 0.16 0.19 0.23 0.23 0.25 0.21 0.20 0.22 0.22 0.21 0.21 0.22 0.19 0.21 0.23 0.24 0.26 0.29 0.31 0.28 0.31 0.30 0.33 0.31 0.32 0.33 0.29 0.30 0.31 0.25 0.22 0.25 0.24 0.23 0.23 0.23 0.25 0.26 0.22 0.21 0.22 0.22 0.22 0.22 0.22 0.21 0.19 0.19 0.19 0.19 0.15 0.12 0.18 0.18 0.17 0.17 0.28 0.30 0.28 0.27 0.28 0.32 0.32 0.31 0.32 0.31 0.33 0.34 0.32 0.33 0.33
0.26 0.28 0.27 0.33 0.23 0.26 0.23 0.25 0.20 0.20 0.19 0.17 0.20 0.17 0.15 0.16 0.15 0.19 0.19 0.19 0.20 0.20 0.23 0.18 0.19 0.21 0.21 0.24 0.23 0.21 0.23 0.20 0.23 0.30 0.27 0.27 0.27 0.28 0.27 0.29 0.31 0.30 0.28 0.26 0.25 0.27 0.23 0.19 0.21 0.19 0.20 0.18 0.18 0.17 0.18 0.16 0.16 0.15 0.13 0.13 0.13 0.13 0.13 0.13 0.12 0.11 0.11 0.11 0.11 0.11 0.11 0.14 0.15 0.20 0.26 0.27 0.25 0.26 0.28 0.29 0.31 0.32 0.32 0.35 0.34 0.35 0.33 0.33
0.26 0.26 0.26 0.32 0.27 0.24 0.26 0.26 0.25 0.21 0.18 0.20 0.16 0.17 0.18 0.16 0.16 0.19 0.20 0.20 0.17 0.20 0.22 0.20 0.20 0.22 0.22 0.21 0.23 0.24 0.23 0.25 0.23 0.22 0.30 0.27 0.28 0.29 0.26 0.27 0.25 0.27 0.26 0.23 0.20 0.20 0.21 0.19 0.18 0.16 0.15 0.15 0.15 0.15 0.14 0.12 0.12 0.11 0.11 0.11 0.11 0.11 0.10 0.11 0.11 0.12 0.12 0.11 0.11 0.12 0.12 0.12 0.18 0.22 0.24 0.26 0.26 0.31 0.33 0.32 0.34 0.36 0.36 0.36 0.35 0.33 0.33 0.33
0.36 0.37 0.37 0.26 0.22 0.25 0.28 0.24 0.23 0.22 0.20 0.20 0.16 0.22 0.18 0.18 0.19 0.19 0.19 0.22 0.24 0.21 0.19 0.19 0.23 0.22 0.23 0.22 0.24 0.28 0.30 0.27 0.28 0.27 0.28 0.27 0.21 0.29 0.26 0.26 0.25 0.20 0.21 0.20 0.21 0.19 0.19 0.20 0.19 0.17 0.13 0.14 0.16 0.14 0.13 0.13 0.12 0.11 0.11 0.11 0.10 0.10 0.10 0.10 0.10 0.12 0.12 0.11 0.12 0.13 0.12 0.12 0.26 0.28 0.30 0.30 0.31 0.31 0.33 0.36 0.38 0.37 0.37 0.35 0.33 0.33 0.33 0.34
0.40 0.42 0.40 0.34 0.22 0.28 0.25 0.29 0.24 0.22 0.19 0.21 0.20 0.21 0.19 0.20 0.24 0.21 0.17 0.22 0.23 0.24 0.25 0.26 0.25 0.21 0.22 0.23 0.25 0.25 0.29 0.28 0.28 0.32 0.34 0.33 0.33 0.32 0.30 0.28 0.24 0.22 0.20 0.21 0.23 0.18 0.19 0.17 0.15 0.16 0.12 0.13 0.17 0.14 0.14 0.13 0.12 0.11 0.11 0.11 0.10 0.10 0.11 0.12 0.14 0.15 0.15 0.15 0.14 0.13 0.14 0.31 0.32 0.32 0.27 0.31 0.32 0.34 0.39 0.39 0.37 0.36 0.35 0.34 0.33 0.33 0.33 0.34
Wind_Speed
1 2 3 4 4 5 6 7 8 10 11 12 13 15 15 16 16 17 17 17 17 16 15 14 14 13 13 12 11 11 11 11 11 12 13 12 12 11 10 11 12 11 10 9 8 8 7 6 5 4 3 3 2 2 3 3 4 5 6 6 8 9 9 9 9 8 7 6 7 8 8 8 10 11 12 12 13 14 14 14 15 15 15 16 17 19 19 19
1 2 2 3 4 4 5 6 8 10 11 12 13 14 15 16 16 17 17 17 17 16 15 14 14 13 13 12 11 11 10 11 11 12 13 13 13 13 12 12 13 12 11 10 9 8 7 6 5 4 4 3 2 2 2 3 3 4 5 6 8 9 8 8 8 7 6 5 5 6 7 7 9 11 11 10 11 12 13 13 13 14 15 15 17 18 18 18
1 1 2 3 4 4 5 6 7 9 11 11 13 14 15 16 16 17 17 17 17 16 15 14 13 13 12 12 11 10 10 10 11 11 11 12 14 14 13 13 13 12 11 10 10 9 7 6 5 5 4 3 2 2 1 2 2 3 4 4 7 8 7 7 8 7 5 4 4 5 7 7 8 10 9 9 10 11 10 11 11 12 13 14 16 17 17 17
1 1 1 2 3 4 4 6 7 9 10 11 13 14 15 16 16 16 16 17 17 16 15 14 13 13 12 11 11 10 10 10 10 10 10 10 13 14 14 14 14 13 12 10 10 9 7 6 6 5 4 3 3 2 1 2 2 2 3 4 5 6 6 7 8 7 5 3 3 5 7 7 8 9 8 8 8 9 8 9 10 10 12 13 14 15 15 15
1 1 1 2 3 4 4 6 7 9 10 11 12 14 15 16 16 16 16 17 17 16 15 14 13 13 12 11 11 10 10 9 10 10 10 10 12 14 15 15 14 13 12 11 10 9 8 7 7 6 5 4 3 2 1 1 0 1 1 2 4 4 5 6 7 6 4 3 3 5 6 7 7 7 7 7 6 7 7 8 9 9 11 12 13 13 13 13
1 1 1 1 2 4 4 6 7 8 10 11 12 14 15 15 15 16 16 16 17 16 15 14 14 13 12 11 10 10 10 8 8 9 9 10 11 13 14 15 15 14 12 11 10 10 9 8 8 7 6 5 4 3 1 1 1 1 0 1 3 4 4 5 6 4 3 3 3 4 6 6 7 6 6 6 5 7 7 7 7 9 10 11 12 12 11 12
1 1 1 1 2 3 5 6 7 8 10 11 12 14 15 15 15 15 16 16 16 16 15 14 14 13 12 11 10 10 11 9 7 9 9 9 11 12 14 14 15 14 13 12 11 10 10 9 9 7 6 5 5 4 3 2 3 3 2 1 3 3 3 4 4 3 2 2 3 4 5 5 6 5 5 5 4 7 7 6 7 9 10 10 10 10 10 10
1 1 1 1 2 3 5 6 7 8 10 11 12 13 14 15 15 15 15 16 16 16 15 14 14 13 12 11 10 10 11 9 7 9 9 10 10 11 13 14 14 14 14 13 12 11 10 10 9 8 7 6 5 4 3 3 4 4 3 3 3 3 4 4 3 2 1 1 3 4 4 4 5 4 4 4 4 5 6 7 8 9 9 9 9 9 9 9
1 0 1 1 1 3 5 6 7 8 9 11 12 13 14 14 14 14 15 15 16 15 15 14 13 13 12 11 10 10 10 9 8 8 9 10 10 11 13 12 13 14 14 13 12 11 11 10 10 9 8 6 6 5 4 4 3 2 4 4 4 4 4 3 2 1 1 2 3 4 4 4 4 3 3 4 4 5 6 6 7 8 8 9 9 9 8 8
1 0 1 1 1 3 5 6 7 8 9 10 11 13 14 14 14 14 14 15 15 15 15 14 13 13 12 11 11 10 10 9 8 8 9 10 10 11 12 11 13 14 13 13 13 12 11 10 9 9 9 7 7 6 6 5 4 3 5 6 6 5 4 3 2 0 1 2 2 3 4 4 4 4 3 3 5 6 6 5 6 7 8 8 8 8 8 7
2 0 1 1 2 3 5 6 7 8 9 10 11 12 13 14 14 14 14 14 15 15 14 14 13 13 12 11 12 10 10 10 8 7 9 10 11 11 11 11 12 13 13 12 13 12 11 10 9 9 8 8 8 7 7 6 5 5 6 6 6 6 4 3 2 1 2 2 3 3 3 4 4 4 4 4 5 6 5 5 6 6 7 8 7 7 7 7
3 1 0 1 2 4 5 6 7 8 9 10 11 12 13 13 13 13 14 14 14 14 14 14 13 13 11 12 12 11 10 10 8 8 9 10 10 9 10 11 11 12 12 12 12 11 10 9 10 10 8 8 8 8 7 6 6 6 6 6 6 6 4 3 2 2 2 3 3 3 3 4 5 5 5 5 5 5 5 5 5 5 6 7 7 6 6 6
3 2 0 1 2 4 5 6 7 8 9 10 11 12 12 13 13 13 14 14 14 14 14 14 13 12 11 12 12 11 11 10 9 9 9 10 9 9 9 10 10 11 11 11 10 10 10 9 10 10 9 9 8 7 6 7 7 7 6 6 6 5 4 2 2 4 4 3 4 4 3 3 5 5 5 5 5 5 5 5 5 5 5 6 7 6 6 6
3 1 0 0 2 4 5 6 7 7 9 10 10 11 12 12 13 13 13 14 14 14 14 14 13 12 12 12 11 11 12 11 10 10 10 10 10 9 10 10 10 10 10 9 9 10 11 10 9 9 9 10 8 7 8 8 8 6 5 5 5 4 3 2 3 4 4 4 5 5 3 2 3 3 5 5 5 5 5 5 5 5 5 6 7 7 6 6
3 1 0 0 2 4 5 6 7 8 9 9 10 11 11 12 12 13 13 14 14 14 14 13 13 12 12 12 12 11 12 12 12 11 11 11 10 9 10 10 10 10 9 9 9 9 10 11 10 9 9 9 8 8 8 8 8 7 6 5 5 4 3 3 4 3 3 5 6 5 3 3 2 2 3 4 4 5 6 6 6 6 6 6 7 7 7 6
3 2 1 1 2 3 5 6 7 8 9 9 10 10 11 12 12 12 13 13 14 14 14 13 13 13 12 12 12 12 12 12 12 12 12 12 11 9 10 10 10 10 9 9 9 9 10 11 10 9 9 8 8 8 8 8 8 8 7 5 5 5 3 4 5 5 4 4 6 6 3 2 2 2 2 3 4 5 6 6 7 7 7 7 7 7 7 7
4 2 1 2 2 3 5 6 7 8 9 9 10 10 11 11 11 12 12 13 13 13 13 12 13 13 12 12 12 13 13 12 12 12 12 12 11 10 10 10 10 10 9 9 9 10 10 11 9 8 9 8 8 7 7 8 8 8 8 7 5 6 4 4 6 6 5 4 5 6 4 3 2 2 2 3 3 4 5 6 7 7 7 7 7 7 8 7
5 3 2 3 3 4 5 6 7 8 9 9 10 10 10 11 11 11 12 13 12 13 13 13 13 13 13 14 13 13 13 12 12 12 12 12 11 11 10 10 10 10 10 10 10 11 11 11 10 9 9 9 8 8 8 6 6 7 7 6 6 6 6 5 5 5 5 5 5 5 5 3 2 2 2 3 3 4 5 6 7 8 7 7 7 7 8 8
6 4 2 3 4 5 5 6 8 8 9 9 9 10 10 11 11 11 12 13 13 13 12 13 16 12 10 14 14 12 12 12 12 13 13 12 11 11 10 10 11 11 11 10 11 12 11 11 11 10 9 10 9 9 8 5 5 6 6 7 6 6 7 6 5 5 5 5 6 6 5 3 2 2 2 2 3 4 6 6 7 8 7 7 7 8 8 8
6 5 3 3 4 5 6 7 8 9 9 9 9 9 10 10 11 11 13 15 16 15 12 13 17 14 11 12 13 12 12 13 12 13 14 13 12 11 11 11 11 12 11 10 10 12 12 11 12 12 10 10 10 9 8 7 7 8 8 8 8 8 7 6 5 5 5 6 5 5 4 3 3 2 1 1 2 3 4 5 6 6 7 7 7 8 8 8
6 6 4 3 4 6 7 8 9 9 10 9 9 10 9 9 10 10 12 15 17 17 16 15 16 16 14 12 13 13 12 13 13 13 14 14 13 12 11 12 11 11 11 10 10 10 12 12 13 12 10 9 9 9 9 8 8 9 9 9 9 9 8 5 5 6 6 6 5 4 5 4 4 2 1 2 2 2 2 3 5 5 6 6 6 7 7 7
6 6 5 4 4 6 7 9 10 10 10 9 9 10 9 8 9 10 11 14 16 17 18 18 17 17 17 15 14 14 13 13 13 13 14 14 15 13 12 13 12 11 11 11 10 10 12 13 13 12 10 10 10 9 9 10 9 9 9 9 9 9 8 6 6 6 6 6 5 5 6 5 3 1 1 2 2 2 2 2 4 5 5 6 6 7 7 8
7 6 5 4 4 6 8 9 10 10 10 10 9 9 8 9 9 11 12 13 14 16 17 18 19 18 18 17 16 16 15 14 14 14 15 15 15 14 13 13 13 11 11 13 12 11 11 11 12 11 10 11 11 10 10 10 10 10 10 10 9 9 9 8 7 8 7 7 6 6 7 6 4 2 2 2 2 2 2 1 3 4 5 6 7 7 8 9
7 6 6 5 4 6 8 9 9 10 10 10 10 10 9 9 9 10 12 13 13 14 16 17 18 18 18 16 16 18 16 14 14 14 16 16 15 14 14 14 13 12 12 13 13 13 10 8 9 10 11 12 11 11 11 10 10 11 11 11 10 9 10 9 7 8 9 8 8 8 9 8 5 3 2 2 3 3 2 2 2 4 5 6 7 7 9 10
8 7 7 6 6 6 8 9 10 10 10 11 11 11 10 9 9 10 11 12 13 13 14 16 17 18 18 16 16 17 16 16 15 14 16 17 15 13 13 13 13 13 13 13 13 14 12 8 9 10 11 11 11 11 11 10 10 10 11 12 11 10 10 10 9 9 10 9 8 8 9 7 5 3 3 3 3 3 3 3 3 4 5 5 6 7 8 9
10 9 8 8 8 8 9 9 9 10 11 11 10 10 10 10 10 10 10 11 11 12 13 15 16 16 18 18 17 17 16 16 15 14 16 17 15 14 13 13 13 12 12 12 12 12 12 10 11 12 11 11 12 11 11 10 10 10 9 10 10 10 10 11 11 11 11 9 7 8 9 8 6 4 4 4 3 2 3 3 3 4 4 5 5 5 6 7
12 11 11 11 11 11 11 10 10 11 11 11 10 10 11 10 10 10 10 11 12 12 13 14 15 15 17 18 19 17 14 14 14 15 16 17 15 14 13 13 13 13 12 12 11 12 13 12 13 13 12 11 11 11 10 10 11 9 7 8 9 10 11 11 12 12 11 9 9 10 10 11 9 5 4 4 3 3 3 3 3 4 4 4 5 5 5 5
13 13 12 13 13 14 13 12 12 12 11 11 11 11 11 11 11 10 11 11 11 11 12 13 14 15 15 17 20 18 13 13 14 15 17 17 15 14 14 14 14 13 13 13 11 10 12 13 14 14 13 12 11 10 9 11 11 9 7 9 9 9 10 11 12 12 11 10 12 11 10 11 10 7 6 6 4 3 3 3 4 4 4 4 4 4 4 5
14 14 13 14 15 16 16 15 14 13 12 12 12 12 11 11 11 11 11 11 11 11 12 13 14 15 16 17 20 19 15 13 14 14 16 17 16 14 14 14 14 13 14 16 12 9 10 12 12 13 13 11 10 9 10 12 11 8 8 9 9 9 10 11 11 12 11 11 13 12 11 11 9 7 7 7 5 5 4 4 4 4 4 4 5 5 5 5
16 15 15 15 15 15 16 16 16 15 13 13 13 12 12 12 12 12 12 11 11 11 12 13 15 16 17 18 19 20 17 14 13 14 16 17 16 15 13 13 14 14 14 16 15 12 11 12 12 13 13 11 10 10 10 12 11 9 10 10 10 10 11 11 12 12 12 13 14 13 12 12 11 8 7 7 7 6 6 5 5 4 4 5 5 5 6 7
17 17 16 16 16 16 16 16 16 16 15 14 13 13 13 13 13 13 12 11 11 11 12 14 15 16 18 19 18 19 19 16 14 16 16 17 17 17 15 14 14 15 14 15 16 15 15 15 14 14 13 12 12 11 10 11 12 12 12 12 12 11 11 12 12 12 14 14 13 12 11 13 13 8 6 7 6 6 6 6 6 6 6 6 6 6 6 7
19 19 18 18 18 18 18 17 16 16 16 15 15 15 15 14 15 15 12 10 11 12 12 14 15 16 18 19 18 19 20 18 17 17 16 17 17 17 17 16 14 15 15 15 15 15 15 15 13 13 13 13 13 12 11 11 12 13 13 13 14 13 12 13 13 13 14 13 10 10 11 13 11 7 6 6 6 6 6 6 6 6 6 6 6 6 7 8
20 20 19 19 19 19 20 18 17 17 16 16 17 17 17 17 17 16 15 13 11 11 12 13 14 15 17 18 18 18 19 18 18 18 17 17 17 16 17 16 15 15 14 14 15 14 14 13 14 14 14 13 13 12 12 11 12 14 14 15 16 15 13 14 14 13 14 12 10 10 12 12 9 8 8 7 6 7 6 6 7 6 6 6 6 7 8 9
22 21 20 20 20 21 21 20 19 18 17 17 18 18 19 20 18 16 17 16 12 12 13 13 14 15 17 18 17 18 19 17 18 19 18 18 18 17 17 16 17 16 14 13 14 15 14 13 14 14 13 13 13 12 11 11 12 13 13 15 16 15 15 14 13 13 13 11 9 10 12 12 10 9 8 8 8 7 7 7 7 6 7 7 8 8 9 10
23 22 21 21 21 21 21 21 20 19 18 18 19 20 21 21 19 17 18 17 15 15 14 14 15 16 17 17 16 18 18 17 19 20 19 19 18 17 17 16 17 17 16 15 14 14 15 13 11 12 12 13 13 12 12 13 13 12 12 14 15 14 15 13 12 12 12 11 10 11 11 9 9 9 9 9 9 8 8 7 7 7 8 8 9 10 11 12
22 21 21 21 21 21 21 21 21 21 20 20 20 22 22 21 19 18 17 17 17 17 16 16 16 17 17 17 17 19 18 17 19 20 18 18 18 17 16 16 16 17 16 16 14 14 16 13 12 12 13 13 13 12 13 14 13 12 13 14 13 12 13 13 12 11 12 13 13 12 10 8 9 10 11 11 9 9 9 8 8 9 9 10 11 12 13 13
22 21 21 22 22 21 22 22 21 21 22 22 23 23 22 22 20 19 18 17 18 18 18 18 17 18 18 18 18 20 19 18 20 20 19 19 18 17 18 16 16 17 17 16 15 14 15 13 13 15 14 13 14 13 13 13 13 13 14 13 11 12 13 14 13 12 13 14 13 13 14 12 12 12 12 12 10 10 10 10 10 10 11 12 12 13 14 14
22 22 23 23 23 22 23 23 22 22 23 24 25 25 23 22 22 21 19 19 18 19 20 20 18 18 19 19 18 20 20 20 21 21 20 20 18 18 19 18 16 17 18 18 16 15 16 15 14 15 15 13 14 15 14 13 13 13 13 12 12 13 13 13 13 13 14 15 14 15 16 15 15 14 13 13 12 11 11 11 11 12 12 13 14 14 15 15
23 23 23 23 23 23 23 24 23 23 24 25 25 25 24 23 22 21 21 20 20 20 22 21 19 18 19 19 18 19 21 21 21 21 20 20 19 18 19 18 17 17 17 19 18 16 17 17 15 15 16 15 15 16 16 14 13 13 13 13 13 14 14 14 14 14 14 15 15 15 15 14 14 13 13 13 13 13 13 13 13 13 13 14 15 15 16 16
24 23 23 22 22 23 23 24 24 25 25 26 25 23 23 23 23 22 21 22 22 21 21 22 21 20 20 20 18 18 20 21 21 21 21 20 19 19 20 19 18 17 17 18 19 17 17 17 16 15 16 16 16 16 16 14 14 14 15 15 14 14 14 15 16 16 16 16 15 15 16 13 11 11 12 13 13 14 14 14 15 15 15 15 16 17 17 18
24 24 24 22 22 23 23 24 25 26 26 26 25 25 24 22 22 22 21 22 22 21 21 21 22 21 21 21 20 19 20 20 21 20 20 20 20 19 20 19 18 18 17 18 18 18 17 17 18 16 16 17 15 14 15 15 15 15 15 15 15 15 15 16 17 16 17 18 17 17 17 14 12 13 14 13 14 15 15 16 16 16 16 17 17 18 19 19
26 26 24 23 23 24 25 26 26 26 26 26 25 25 23 22 23 23 22 22 23 22 22 22 22 21 21 21 20 20 20 20 20 20 20 21 20 19 19 19 19 19 18 17 16 16 16 17 17 17 16 15 14 14 15 16 16 16 15 16 16 16 16 17 17 16 16 17 17 18 18 15 15 16 16 16 16 16 17 17 17 17 17 18 19 19 20 20
27 27 26 25 25 25 26 27 27 27 27 26 24 24 23 23 24 24 23 23 23 22 22 22 22 22 22 21 21 21 21 20 20 20 20 20 19 18 18 19 20 20 19 17 16 17 17 17 17 16 15 15 15 16 16 16 17 17 16 16 17 17 17 17 17 16 17 18 17 18 19 17 16 17 17 18 18 17 18 19 18 19 19 19 20 20 21 22
27 28 28 27 26 27 28 29 28 28 29 27 26 26 24 24 25 25 24 25 24 23 23 23 22 22 21 21 21 22 22 21 20 20 20 20 19 18 18 19 21 20 19 18 17 18 18 18 18 17 16 16 17 17 18 18 19 18 16 17 17 17 17 18 18 18 20 22 21 21 21 17 16 17 18 19 19 19 20 20 20 21 21 21 22 22 23 24
27 27 27 28 28 28 29 29 28 28 29 29 29 28 27 26 25 24 25 25 23 23 23 23 22 21 21 21 21 21 21 21 21 21 21 20 19 19 19 19 21 20 18 17 18 19 18 18 20 20 19 18 18 18 18 19 18 18 18 18 18 18 18 19 19 20 21 22 22 24 23 18 17 19 19 19 20 20 20 21 21 21 22 23 23 24 25 25
26 26 26 27 27 29 29 29 29 29 29 29 29 29 29 28 26 24 25 24 24 24 23 22 22 22 22 22 22 22 22 22 21 21 22 21 20 20 19 19 19 19 18 18 19 20 19 19 21 21 20 18 16 16 16 17 17 18 19 20 19 20 20 20 20 21 22 22 23 24 23 20 20 22 21 20 21 22 22 22 22 22 23 24 25 26 26 26
27 27 27 26 26 28 28 28 29 29 29 29 29 29 30 30 27 26 26 25 25 25 24 23 24 24 24 24 23 22 22 22 22 22 22 21 20 19 20 20 19 19 20 20 20 20 20 20 21 22 21 19 17 17 17 18 19 20 20 21 22 22 22 22 23 23 22 23 25 24 23 24 23 22 22 21 22 23 23 23 24 24 25 26 26 26 26 26
29 28 27 26 26 27 27 27 28 29 29 29 29 29 30 31 29 27 27 26 26 26 25 25 26 26 26 25 24 22 22 22 22 22 22 22 21 21 21 20 20 21 21 21 20 21 20 20 21 22 22 21 20 20 20 21 22 22 22 23 24 24 24 25 26 26 24 26 26 23 23 25 23 22 23 23 23 24 24 24 25 25 26 26 26 26 26 26
30 29 28 28 29 28 27 26 27 28 29 29 29 29 31 32 30 28 27 26 27 28 27 26 27 27 26 26 25 24 24 23 22 23 23 22 22 23 22 21 21 22 22 21 20 21 21 20 21 22 22 22 22 22 22 23 24 24 25 26 25 26 27 27 28 28 28 29 29 27 28 28 25 24 25 25 25 25 25 25 25 25 25 25 26 26 26 27
30 30 29 29 30 30 29 28 28 28 28 28 29 30 30 31 31 28 27 27 28 28 27 28 28 27 26 26 26 25 25 24 24 24 24 23 24 24 23 22 22 23 23 22 21 21 21 20 21 21 21 22 23 22 23 24 25 26 27 27 27 27 28 29 29 28 29 30 30 30 31 30 27 26 26 26 26 26 26 26 25 25 25 26 26 26 27 27
32 31 30 30 31 31 30 30 29 29 29 29 29 29 30 31 31 28 27 27 28 27 28 28 27 25 25 27 26 24 23 22 23 24 24 24 24 24 23 23 23 23 23 22 22 22 22 21 21 21 22 23 23 23 24 24 26 28 29 28 28 28 28 28 28 28 29 29 29 29 30 28 26 25 25 25 25 25 25 25 26 26 26 26 26 27 27 28
33 32 32 31 32 32 31 30 30 30 30 29 29 29 29 30 30 29 28 27 27 27 27 27 27 26 26 27 25 23 22 21 21 22 23 23 23 23 23 23 23 23 23 22 22 22 22 21 21 22 23 23 22 22 23 23 26 28 28 27 28 29 29 28 28 28 28 28 28 27 26 25 24 25 25 25 25 25 26 26 26 26 26 26 27 28 28 29
Wind_Direction
177 186 191 191 191 194 198 198 197 196 196 196 195 192 191 190 188 188 187 187 187 187 187 188 188 189 191 192 192 193 197 200 203 205 208 207 203 198 194 191 188 185 186 186 183 181 179 183 184 178 174 161 139 103 95 85 64 60 58 50 50 49 48 48 47 52 57 63 76 92 101 99 95 96 93 94 93 93 100 96 92 92 87 86 91 101 108 111
158 174 183 186 186 190 193 193 192 192 192 192 191 189 188 187 186 186 186 186 186 187 187 187 187 188 190 192 193 195 200 204 210 215 214 210 204 199 195 190 188 189 191 192 189 187 187 186 184 185 188 182 148 118 110 96 73 61 54 48 54 48 43 46 46 50 53 62 77 96 109 105 99 101 103 102 98 98 104 100 98 98 94 93 98 104 109 112
138 153 171 180 180 184 188 186 185 186 187 187 186 185 185 185 185 185 185 185 186 186 187 187 187 188 189 192 194 198 201 207 215 215 212 208 202 199 196 193 193 195 197 198 197 196 198 195 189 192 203 203 164 137 129 112 89 65 53 50 58 45 38 45 41 42 48 61 81 105 116 114 105 104 108 107 102 105 108 104 105 106 103 103 106 109 113 114
121 130 153 171 175 177 180 179 178 179 181 182 182 183 182 182 183 184 184 184 186 187 187 187 187 187 188 191 195 199 203 209 208 200 199 200 198 198 198 196 197 199 201 202 202 201 202 198 194 202 217 215 189 196 189 128 98 57 50 46 49 36 35 38 32 40 50 65 93 112 123 126 116 109 111 113 108 109 113 111 109 111 112 112 114 116 118 117
114 115 129 160 170 170 173 174 173 174 176 179 180 181 181 181 182 183 183 184 186 186 187 188 188 188 189 191 195 199 202 203 196 191 195 198 198 198 198 198 198 200 202 202 201 200 200 199 200 208 218 222 212 213 197 145 120 330 52 47 31 21 29 25 26 47 53 63 103 122 132 129 121 119 120 123 113 102 110 119 113 112 117 119 121 123 123 122
116 113 112 141 165 168 168 171 171 171 174 177 179 179 180 180 181 183 184 185 186 187 187 188 189 190 190 192 196 199 201 199 192 194 195 198 201 199 198 198 199 201 202 202 199 199 200 201 206 211 216 223 226 224 225 206 226 260 265 46 13 9 15 12 23 52 59 70 105 122 135 131 129 131 128 134 116 90 97 120 118 114 121 124 126 129 129 129
118 122 111 123 159 167 167 171 171 171 173 176 178 179 180 180 182 183 184 185 186 187 188 189 190 191 191 192 196 199 205 208 199 197 197 198 200 197 197 197 200 202 202 202 201 203 204 205 210 215 219 222 225 225 237 247 236 250 271 320 339 349 350 357 15 40 69 93 103 116 137 143 149 144 128 141 136 99 96 116 124 120 126 130 132 136 138 137
108 140 122 119 157 167 170 172 172 172 174 176 178 179 181 181 183 184 184 186 186 187 189 190 191 191 192 194 199 202 206 207 199 198 199 197 196 193 192 195 201 202 202 205 205 208 210 212 214 215 219 221 222 222 234 248 234 240 268 301 318 322 328 342 0 37 94 128 113 124 150 159 158 143 130 150 152 120 108 115 126 129 133 138 141 145 147 146
57 159 152 133 157 169 172 174 173 173 174 177 179 180 182 183 184 185 185 186 187 188 189 191 192 193 195 198 205 205 200 198 198 201 198 195 192 188 189 195 201 201 202 207 209 212 214 217 217 216 222 221 221 225 233 239 226 237 276 292 302 306 317 326 328 31 131 157 136 142 158 158 147 138 155 180 169 139 125 125 132 140 145 147 150 154 157 158
30 146 180 150 161 171 174 176 176 174 174 177 179 181 183 184 186 186 186 187 188 189 190 192 192 193 197 200 206 202 193 196 198 198 196 193 189 186 191 196 198 200 202 206 211 214 217 221 218 217 225 223 219 224 227 235 243 259 277 284 286 292 299 296 296 270 178 166 159 166 154 149 149 164 187 176 163 153 144 143 144 151 157 157 156 160 166 170
29 40 192 176 170 175 176 178 178 176 175 177 179 181 183 185 188 188 188 188 189 190 191 192 192 195 200 204 207 201 192 198 197 194 194 189 186 189 195 196 197 200 202 206 212 214 218 220 215 214 220 217 217 223 225 234 249 260 272 276 277 279 271 258 262 202 193 167 162 174 158 158 160 180 198 157 146 160 162 158 158 166 168 166 165 166 172 176
30 36 153 193 183 177 177 178 179 179 177 178 179 181 183 186 189 190 190 190 190 191 191 192 193 198 203 209 212 206 197 199 198 195 192 188 190 193 196 195 197 202 204 210 214 214 217 213 210 214 215 214 218 223 224 231 246 258 265 270 278 267 235 233 234 212 212 173 162 176 179 188 180 190 199 165 152 162 170 171 175 183 180 176 175 172 177 179
27 32 72 188 190 181 178 178 179 181 180 180 180 181 184 186 188 191 191 191 191 191 191 193 195 201 207 209 210 207 204 205 204 199 194 193 196 196 197 196 198 204 208 212 214 212 211 205 207 215 218 221 223 225 228 233 243 253 253 261 278 249 205 197 200 199 206 178 176 195 193 177 179 197 189 164 169 174 178 187 188 191 188 186 183 181 184 182
17 22 48 172 188 184 181 179 180 180 181 181 182 182 184 186 188 190 191 192 192 191 192 194 197 203 209 212 209 209 210 209 207 203 198 198 198 198 199 198 199 202 207 211 211 209 207 204 209 217 219 225 229 232 234 232 233 244 249 249 254 226 184 163 178 187 192 176 184 206 208 168 155 181 174 165 183 191 200 202 194 194 191 189 188 187 190 189
359 1 0 195 188 186 184 183 182 181 182 183 184 184 185 186 187 189 191 192 192 192 192 195 201 204 212 215 210 208 208 208 209 206 202 201 200 200 200 200 201 203 206 208 207 206 205 204 211 217 214 221 230 231 232 230 226 231 242 234 217 213 185 172 182 178 178 173 183 197 200 184 153 150 169 177 195 201 214 213 203 202 195 192 191 192 197 197
344 326 261 217 197 190 188 186 185 183 183 184 186 187 187 188 188 190 191 191 192 193 194 199 203 207 214 213 205 206 207 207 208 205 203 204 204 203 199 199 201 203 205 206 204 202 203 206 214 220 216 216 222 225 226 227 220 217 228 229 212 216 200 177 183 179 176 173 182 195 206 198 169 155 166 183 204 209 219 222 217 213 205 201 198 198 205 204
343 315 258 224 210 199 193 189 187 186 186 186 186 187 188 189 189 190 190 192 195 196 200 205 203 209 217 211 206 208 205 203 205 204 204 207 207 202 196 197 199 200 200 200 202 201 202 208 213 218 220 218 217 219 220 222 219 209 216 222 214 216 211 186 181 180 187 188 188 200 218 239 226 196 186 185 210 223 227 230 228 223 215 209 206 206 210 211
346 322 265 231 217 207 201 193 189 189 188 187 185 186 187 189 190 193 195 196 198 200 207 208 204 210 214 209 207 204 200 201 203 203 204 205 204 200 198 199 197 196 198 201 205 205 206 211 214 216 216 215 214 212 214 220 219 209 210 217 212 208 208 200 186 184 194 202 199 201 210 234 246 235 228 209 219 236 239 239 235 230 222 212 213 216 216 217
348 331 281 238 223 215 206 194 192 190 186 183 183 183 186 192 198 204 205 204 203 206 211 206 203 209 209 204 204 202 203 203 202 204 203 202 201 200 201 200 197 200 205 207 208 208 211 212 214 218 215 213 213 213 221 233 228 222 223 226 226 214 208 208 199 190 198 207 206 208 218 237 250 260 262 239 241 249 250 244 236 233 228 222 223 227 227 227
345 334 300 249 228 219 208 196 193 189 185 183 185 191 198 204 209 210 210 213 215 218 220 209 207 214 211 201 202 204 205 205 207 207 203 202 199 199 202 201 203 211 213 210 207 209 214 215 215 218 217 213 213 219 230 236 229 229 229 226 228 223 212 207 204 196 204 214 205 208 232 248 255 272 316 314 281 268 262 247 239 239 236 236 237 238 238 235
337 329 306 260 233 221 209 200 196 194 194 194 199 209 214 217 219 217 217 221 222 224 227 219 215 220 217 208 206 206 208 208 209 207 204 204 203 203 205 205 211 216 214 212 209 210 216 221 220 219 219 216 218 223 227 228 225 225 225 226 227 221 210 203 204 199 208 220 209 211 239 244 246 268 325 322 306 304 289 253 247 252 246 244 244 243 243 239
327 323 304 267 237 220 208 202 200 200 203 204 211 219 220 221 226 228 228 229 226 223 225 223 220 222 221 219 214 212 216 214 207 204 205 206 208 210 206 209 216 215 212 213 212 213 219 225 223 219 221 221 221 223 223 225 226 222 221 225 225 215 208 204 204 203 212 223 221 229 248 245 231 243 300 303 302 306 301 260 252 255 253 252 249 245 244 242
317 316 301 270 238 217 208 204 203 206 210 211 216 220 222 226 231 231 231 235 231 222 222 220 219 220 220 220 217 213 219 218 209 205 206 207 210 213 209 210 217 216 212 215 216 217 220 225 224 220 220 219 218 219 223 226 225 222 221 223 221 213 213 213 206 209 219 232 240 246 251 246 228 222 261 286 290 290 289 269 261 260 260 260 257 254 253 253
307 306 295 273 241 216 206 204 208 213 215 218 224 224 226 233 235 235 232 235 232 223 220 219 218 219 217 216 213 212 216 219 215 208 204 207 209 211 214 213 215 218 217 217 220 224 226 224 220 216 213 217 219 218 221 227 224 221 223 226 225 220 220 218 213 218 227 235 243 249 249 241 233 242 264 274 281 289 289 281 280 278 270 264 262 262 261 261
294 291 284 267 247 223 210 211 215 218 219 224 228 227 232 239 239 237 234 234 231 222 218 216 216 217 214 211 210 211 215 218 219 211 204 208 208 208 215 215 217 221 217 216 221 228 231 222 213 214 213 217 222 220 221 227 227 223 222 227 233 232 226 224 226 232 237 236 235 247 250 231 220 252 270 265 272 282 288 291 291 289 283 277 275 270 265 263
283 280 273 260 249 234 225 224 222 222 225 227 229 230 236 242 240 235 233 235 230 219 214 213 213 212 210 210 208 209 216 218 218 213 205 209 211 211 216 216 220 225 218 216 224 230 230 221 218 219 220 222 226 228 225 225 231 228 218 223 232 234 229 228 231 238 244 241 231 244 251 233 222 251 263 254 258 264 275 291 294 292 293 292 291 285 277 274
277 274 266 257 247 236 234 234 228 227 229 229 230 234 238 240 236 230 230 235 230 219 213 212 213 211 210 208 204 207 216 212 211 212 208 210 211 215 221 218 220 225 219 218 227 230 226 220 219 220 225 226 227 230 223 222 231 227 217 227 234 232 231 230 234 241 246 246 240 242 248 244 239 244 249 245 247 254 264 281 292 299 304 304 304 301 295 293
275 271 264 257 247 237 237 239 234 232 234 236 236 238 239 235 228 224 230 234 226 218 215 213 213 213 211 208 205 210 216 210 212 213 209 212 213 217 224 223 222 222 217 219 225 226 223 220 217 219 224 225 226 231 224 222 230 229 227 235 237 236 234 232 236 242 246 250 250 241 238 247 243 232 241 248 248 257 266 276 288 299 305 309 310 308 305 303
273 269 264 259 249 238 236 238 237 236 239 242 241 237 234 228 223 223 232 234 223 218 217 213 212 212 210 208 210 214 216 216 220 215 208 213 216 221 227 227 226 221 217 222 228 228 223 220 220 221 225 228 234 238 231 228 231 232 233 233 234 236 234 234 240 243 243 249 254 242 234 248 246 230 241 248 247 258 263 268 276 285 296 303 308 309 308 307
270 266 263 257 247 237 234 236 236 237 242 245 239 233 227 222 222 225 227 229 224 220 218 214 212 212 209 208 211 214 216 218 218 211 210 214 216 222 229 229 228 226 222 226 233 235 225 223 228 230 233 239 241 238 234 232 231 231 233 232 232 232 233 237 243 247 247 250 255 245 235 249 252 241 248 249 249 257 256 258 267 274 284 292 298 302 306 307
269 265 261 254 244 237 234 235 235 236 242 244 234 226 223 222 226 228 224 227 228 221 216 214 212 212 211 212 213 214 216 219 212 209 213 215 216 220 224 225 226 227 227 228 232 234 228 228 230 230 233 238 237 233 232 233 230 230 234 235 234 234 238 242 241 244 249 254 254 240 232 248 253 246 244 242 244 254 255 258 268 277 283 286 288 295 301 304
268 265 260 252 243 238 236 236 237 238 241 239 230 223 223 225 228 230 226 226 229 222 216 216 213 213 214 215 217 215 216 218 215 214 216 214 217 221 223 225 224 224 227 227 226 227 228 230 228 225 228 232 233 230 228 229 230 232 234 234 237 239 241 244 242 242 249 254 246 232 236 248 249 239 228 228 237 250 257 262 269 278 284 285 288 295 299 303
267 265 259 249 241 237 236 238 240 241 240 236 230 225 227 229 229 229 228 226 229 226 221 219 217 216 215 217 218 215 216 218 216 218 219 217 220 222 224 228 227 228 230 226 223 222 224 228 226 222 222 226 230 231 231 229 228 232 234 236 240 241 241 244 244 244 250 251 238 234 243 244 237 232 228 229 238 247 253 260 267 274 280 284 290 296 302 307
267 262 254 246 242 238 237 238 240 239 238 234 230 227 229 232 232 231 230 228 230 229 223 222 220 217 217 219 219 216 218 220 217 218 219 219 223 224 224 227 227 230 232 227 226 224 225 226 222 221 224 226 228 233 239 238 233 236 239 241 244 243 243 246 249 250 254 252 240 236 244 243 234 229 229 232 237 244 249 253 261 271 277 284 291 297 303 307
265 258 250 246 243 237 235 238 238 236 235 233 232 230 229 232 233 233 232 230 230 228 225 225 223 218 219 221 220 219 222 223 218 218 220 221 225 224 223 224 223 226 228 227 227 227 230 231 220 221 230 229 227 233 243 245 241 240 242 243 245 245 245 247 254 258 258 256 248 239 244 250 239 228 229 236 238 240 245 250 260 272 279 284 291 297 300 304
261 254 248 245 240 236 235 238 236 233 233 233 233 233 232 233 235 234 233 232 231 229 225 224 225 223 222 222 221 220 225 225 218 217 220 221 224 224 224 226 225 225 227 228 228 227 233 233 221 222 228 229 235 239 242 246 244 241 243 243 245 250 248 246 252 255 254 256 250 239 241 242 237 238 237 239 242 241 245 254 263 272 279 282 288 293 297 300
257 252 247 242 238 236 237 237 234 232 233 233 235 236 235 236 236 235 233 233 234 232 228 226 228 227 225 224 222 219 220 222 219 220 221 221 225 226 224 228 230 230 232 234 233 231 235 233 224 226 229 230 239 243 240 244 246 246 245 240 241 249 248 248 252 249 248 253 250 246 246 237 236 244 238 235 244 247 251 261 268 275 281 283 287 292 296 300
255 252 246 241 238 239 239 236 233 232 233 234 236 237 237 237 236 235 233 232 234 233 230 230 230 230 229 227 224 218 218 221 220 222 223 222 227 229 225 227 230 233 236 236 235 235 236 235 229 229 232 231 235 240 238 239 244 248 245 239 241 247 244 244 250 251 251 254 255 255 253 247 246 243 230 232 243 249 256 265 272 279 283 285 289 292 297 301
252 249 243 238 238 239 237 234 233 233 233 234 236 237 237 237 236 234 232 232 234 232 231 232 231 231 230 229 226 220 221 224 222 221 225 226 229 230 229 230 230 231 234 233 234 235 234 237 235 230 233 234 234 238 239 237 238 242 243 243 247 250 249 247 248 253 256 259 261 261 257 256 252 237 227 236 246 251 260 266 272 278 281 284 287 290 295 299
250 247 240 236 238 239 234 232 233 233 233 235 236 236 236 237 235 232 230 231 233 233 232 232 230 229 229 229 229 225 224 227 224 224 228 228 228 230 230 232 232 231 232 232 233 234 232 236 238 230 229 235 236 238 242 242 241 241 242 244 246 248 251 252 251 252 255 259 262 263 261 259 253 243 240 244 250 257 264 267 271 276 279 283 286 288 292 295
247 244 239 237 239 237 233 233 233 233 235 236 236 237 236 237 235 231 229 231 233 233 234 233 231 230 228 228 229 227 225 227 225 226 229 227 229 232 230 232 234 232 230 229 230 232 232 234 236 233 231 235 238 242 245 246 246 246 246 246 247 248 249 252 253 252 253 258 260 263 266 261 251 252 252 253 258 263 266 269 271 275 279 282 285 288 290 293
244 242 240 239 240 237 233 234 234 235 236 236 237 237 236 236 235 232 229 230 232 232 232 233 232 230 230 229 229 227 225 226 226 227 229 227 230 234 231 232 235 233 231 230 228 232 236 234 235 236 236 237 240 243 244 246 246 247 249 250 250 252 252 254 257 256 254 257 261 265 267 263 255 256 257 259 263 266 268 270 271 275 279 282 285 288 290 292
244 245 245 242 240 236 234 236 235 235 236 237 238 238 236 235 234 232 230 229 230 231 230 230 230 230 231 230 229 226 224 227 228 228 228 226 229 234 234 232 232 231 231 230 229 231 235 234 233 235 238 240 242 243 244 246 246 245 248 251 252 253 255 258 261 261 260 260 261 263 265 262 258 260 261 262 265 267 269 271 272 274 278 282 285 288 290 292
247 247 244 241 239 236 235 236 236 236 237 236 237 236 235 236 235 233 231 229 230 230 229 228 229 230 230 230 228 226 226 229 229 228 228 227 228 233 234 232 231 230 232 234 233 232 235 235 233 235 238 239 241 243 243 243 245 246 248 251 252 253 255 258 260 260 261 261 260 263 269 267 259 260 263 263 266 269 271 273 274 276 279 282 285 288 289 291
248 245 241 239 238 236 237 238 238 239 237 235 236 235 233 234 235 235 234 232 232 232 230 228 229 229 228 227 227 227 229 231 230 229 230 228 227 231 232 232 232 232 234 239 238 236 237 237 235 237 240 242 244 245 244 242 242 246 248 249 251 254 254 258 260 259 260 261 260 263 270 269 260 259 263 265 268 271 271 273 275 277 280 282 284 286 288 290
246 243 240 238 236 236 238 238 238 239 238 235 236 235 233 233 233 234 235 233 232 233 232 230 228 227 225 225 225 226 228 231 230 229 228 226 227 230 233 233 231 232 235 239 240 239 238 239 238 241 246 249 249 248 247 247 244 246 248 248 251 255 256 259 261 261 264 265 264 265 267 265 261 259 260 265 270 271 271 272 275 278 280 283 285 286 288 290
243 241 240 239 238 237 237 236 236 237 237 236 236 234 233 232 231 231 233 234 231 230 232 232 228 226 224 223 225 227 227 228 228 226 224 225 227 229 232 233 233 235 238 239 240 241 240 240 241 243 248 251 251 249 250 252 252 251 251 251 253 256 257 258 260 263 267 267 268 269 267 266 266 261 260 267 272 272 272 273 276 279 281 284 286 287 288 289
241 241 239 239 239 237 236 237 237 237 236 235 236 235 232 231 230 230 231 233 231 230 231 231 228 227 225 224 225 227 226 225 226 224 224 225 226 226 229 232 234 237 238 238 240 244 244 243 243 244 246 249 251 252 253 255 256 256 256 256 257 258 258 259 260 263 265 265 268 272 270 269 270 265 265 272 274 273 274 275 277 280 282 284 285 286 288 290
240 241 239 237 237 239 239 240 240 239 235 234 235 234 232 230 229 230 232 231 229 230 231 230 227 227 226 226 227 227 225 226 226 226 227 227 226 226 228 232 235 236 237 238 242 247 248 246 245 245 247 249 251 253 255 257 258 259 259 259 259 260 260 261 262 263 264 265 267 270 270 270 269 268 270 274 275 275 276 277 278 280 281 283 285 286 289 290
241 241 239 237 238 239 239 238 239 238 236 234 234 233 232 231 229 230 232 232 229 229 231 231 228 227 228 228 229 229 229 231 230 228 229 228 228 230 232 234 235 235 236 239 243 247 249 248 246 247 250 251 251 254 257 259 260 261 261 260 260 261 262 262 263 264 264 266 268 269 270 270 270 271 273 274 274 275 274 275 277 279 281 283 285 287 289 290
241 241 240 239 239 237 236 236 236 237 236 234 233 232 232 231 230 228 231 234 234 231 231 230 227 227 230 228 228 230 232 235 234 230 229 231 232 234 236 237 235 234 237 239 242 245 247 248 246 248 253 253 251 255 259 261 263 263 261 261 261 261 262 262 263 263 263 266 268 268 270 272 271 272 273 273 273 273 272 274 276 278 281 284 285 288 290 291
242 240 238 239 238 236 235 235 234 235 235 235 233 232 232 231 230 228 230 233 234 234 234 232 227 228 230 228 228 231 233 235 235 232 231 234 235 236 238 237 235 237 238 239 242 244 244 246 247 248 254 255 252 256 261 263 264 263 261 261 261 261 262 262 263 264 263 265 267 268 271 272 271 271 272 271 271 272 274 276 278 280 282 285 287 289 291 292